Location: Unspecified
(0.0000°N, 0.0000°E)
Time: 14:42:27
(UTC+00:00)

COSMOS-2414 - Pass Details

Date: 12 June 2023
Orbit: 908 x 965 km, 82.9° (Epoch: 21 September)

Event Time Altitude Azimuth Distance (km) Brightness Sun altitude
Rises 03:38:28 0° 37° (NE) 3,563 9.8 -32.1°
Reaches altitude 10° 03:43:07 10° 70° (ENE) 2,610 9.1 -31.1°
Maximum altitude 03:44:48 11° 87° (E) 2,518 8.9 -30.7°
Drops below altitude 10° 03:46:29 10° 103° (ESE) 2,604 8.8 -30.3°
Sets 03:51:04 0° 136° (SE) 3,540 9.1 -29.3°
